STARLINK-11180 [DTC]

Last updated on Sat Aug 03 2024 00:02:04 GMT+0000 (Coordinated Universal Time)

1 60185U 24124C 24215.57947574 .00051761 00000+0 32018-3 0 9991 2 60185 53.1583 161.3891 0002188 92.1481 267.9791 15.76595453 4780
UTC large
Height (km)
Speed (km/s)
/
Latitude / Longitude
Inclination (degrees)
Orbital Period (minutes)
Azimuth
Elevation
Range (km)
Doppler Factor

Next 0 passes for location: London (51.5072 / 0.1276)

Sorry there are no passes over London.